This demonstration page uses our WeatherBlox Daily Observations layout. Learn more.

Left ArrowRight Arrow

47.50024, -111.30081

Hourly Observations for May 5, 2022

Temp ( °F °C ) Dew Point ( °F °C ) Humidity (%) Winds ( mph kmh ) Pressure ( in mb ) Visibility ( mi km ) Precip ( " mm )
12:53 am 00:53 Clear 48 8.9 38 3.3 68 68 S 8 13 29.89 1012 10 16 0.00 0.00
1:53 am 01:53 Clear 51 10.6 38 3.3 61 61 S 10 17 29.85 1011 10 16 0.00 0.00
2:53 am 02:53 Clear 48 8.9 38 3.3 68 68 SSW 10 17 29.84 1011 10 16 0.00 0.00
3:53 am 03:53 Clear 49 9.4 38 3.3 66 66 SSW 10 17 29.82 1010 10 16 0.00 0.00
4:53 am 04:53 Clear 48 8.9 37 2.8 66 66 S 6 9 29.81 1010 10 16 0.00 0.00
5:53 am 05:53 Clear 49 9.4 37 2.8 64 64 SSW 13 20 29.81 1009 10 16 0.00 0.00
6:53 am 06:53 Sunny 53 11.7 37 2.8 55 55 S 15 24 29.80 1009 10 16 0.00 0.00
7:53 am 07:53 Sunny 59 15 38 3.3 46 46 S 15 24 29.78 1008 10 16 0.00 0.00
8:53 am 08:53 Sunny 63 17.2 38 3.3 40 40 SSW 18 30 29.77 1008 10 16 0.00 0.00
9:53 am 09:53 Sunny 67 19.4 38 3.3 35 35 SSW 21 33 29.74 1007 10 16 0.00 0.00
10:53 am 10:53 Sunny 67 19.4 37 2.8 33 33 S 24 39 29.73 1007 10 16 0.00 0.00
11:53 am 11:53 Sunny 72 22.2 38 3.3 29 29 S 21 33 29.70 1006 10 16 0.00 0.00
12:53 pm 12:53 Sunny 72 22.2 38 3.3 29 29 SW 13 20 29.67 1005 10 16 0.00 0.00
1:53 pm 13:53 Sunny 73 22.8 36 2.2 26 26 S 22 35 29.63 1004 10 16 0.00 0.00
2:53 pm 14:53 Sunny 76 24.4 32 0 20 20 SSW 15 24 29.60 1002 10 16 0.00 0.00
3:53 pm 15:53 Sunny 76 24.4 32 0 20 20 S 18 30 29.55 1001 10 16 0.00 0.00
4:53 pm 16:53 Sunny 75 23.9 34 1.1 22 22 SSE 20 31 29.52 1000 10 16 0.00 0.00
5:53 pm 17:53 Sunny 72 22.2 33 0.6 24 24 S 20 31 29.49 999 10 16 0.00 0.00
6:44 pm 18:44 Mostly Cloudy 66 18.9 37 2.8 34 34 WSW 21 33 29.42 996 10 16 0.00 0.00
6:53 pm 18:53 Mostly Cloudy 65 18.3 38 3.3 37 37 WSW 20 31 29.53 1000 10 16 0.00 0.00
7:53 pm 19:53 Mostly Cloudy 63 17.2 39 3.9 41 41 SW 10 17 29.50 999 10 16 0.00 0.00
8:34 pm 20:34 Cloudy with Light Rain 56 13.3 44 6.7 65 65 WSW 38 61 29.53 1000 10 16 0.00 0.00
8:53 pm 20:53 Cloudy with Light Rain 54 12.2 44 6.7 69 69 SW 31 50 29.59 1002 10 16 0.00 0.00
9:53 pm 21:53 Cloudy 51 10.6 44 6.7 77 77 SW 14 22 29.57 1001 10 16 0.00 0.00
10:53 pm 22:53 Mostly Clear 49 9.4 42 5.6 77 77 SSW 13 20 29.57 1001 10 16 0.00 0.00
11:53 pm 23:53 Mostly Clear 51 10.6 42 5.6 71 71 SW 17 28 29.54 1000 10 16 0.00 0.00

Powered by AerisWeather